DW1970 Bodega Bay CA US current weather conditions

sailwx.info

Wind from 219 at 3 knots

Air temperature 11.7° C
Dewpoint 7.6° C

Last reported at 2017-Mar-23 22:48 UTC.
Time now 2017-Mar-23 23:55 UTC

Location: N 38°23' W 123°04'.
View on Google Maps.

See reports from other nearby stations

  
Tides and Currents Weather Stations Pressure Air Temp Water Temp Dewpoint Dewpoint Depression Visibility Wind Speed Wind Dir Waves Ship Positions
date/time (UTC)wind fromknots sea level pressurealtimeterstation pressurevisibilityair tempwater tempwave heightnotes
2017-Mar-23 22:48 219 3 11.7
2017-Mar-23 22:33 209 4 12.2
2017-Mar-23 22:18 226 4 12.8
2017-Mar-23 22:03 209 5 12.2
2017-Mar-23 21:48 204 4 12.8
2017-Mar-23 21:33 254 3 12.8
2017-Mar-23 21:18 234 1 12.2
2017-Mar-23 21:03 244 2 12.2
2017-Mar-23 20:48 248 2 12.2
2017-Mar-23 20:33 249 1 12.2
2017-Mar-23 20:18 252 1 12.2
2017-Mar-23 20:03 259 2 12.2
2017-Mar-23 19:48 278 3 12.8
2017-Mar-23 19:33 243 3 12.2
2017-Mar-23 19:18 284 3 12.2
2017-Mar-23 19:03 270 4 12.2
2017-Mar-23 18:48 270 3 11.7
2017-Mar-23 18:33 275 4 11.7
2017-Mar-23 18:18 281 2 11.7
2017-Mar-23 18:03 259 3 11.7
2017-Mar-23 17:48 273 2 11.1
2017-Mar-23 17:33 273 1 11.1
2017-Mar-23 17:18 273 1 10.6
2017-Mar-23 17:03 313 0 10.6
2017-Mar-23 16:48 313 10.0
2017-Mar-23 16:32 313 0 10.0
2017-Mar-23 16:17 313 9.4
2017-Mar-23 16:02 313 2 9.4
2017-Mar-23 15:47 313 8.9
2017-Mar-23 15:32 313 8.3
2017-Mar-23 15:17 313 8.3
2017-Mar-23 15:02 313 1 8.3
2017-Mar-23 14:47 313 7.8
2017-Mar-23 14:17 313 7.2
2017-Mar-23 14:02 313 7.2
2017-Mar-23 13:47 313 7.8
2017-Mar-23 13:17 313 0 7.2
2017-Mar-23 12:47 313 1 7.2
2017-Mar-23 12:32 313 2 7.8
2017-Mar-23 12:02 313 7.8
2017-Mar-23 11:47 328 2 7.8
2017-Mar-23 11:17 319 0 7.8
2017-Mar-23 10:47 313 7 8.3
2017-Mar-23 10:32 306 4 7.8
2017-Mar-23 10:17 317 3 7.8
2017-Mar-23 09:47 312 4 8.3
2017-Mar-23 09:32 323 2 7.8
2017-Mar-23 09:17 322 6 8.3
2017-Mar-23 09:02 315 6 8.3
2017-Mar-23 08:47 304 8 8.3
2017-Mar-23 08:32 321 6 8.3
2017-Mar-23 08:17 321 6 8.3
2017-Mar-23 08:02 301 7 8.3
2017-Mar-23 07:47 310 6 8.3
2017-Mar-23 07:32 307 7 8.3
2017-Mar-23 07:17 317 10 8.3
2017-Mar-23 07:02 325 11 8.3
2017-Mar-23 06:48 308 8 8.3
2017-Mar-23 06:32 314 9 8.3
2017-Mar-23 06:17 317 8 8.3
2017-Mar-23 06:02 301 11 8.9
2017-Mar-23 05:47 306 11 8.9
2017-Mar-23 05:32 311 11 8.9
2017-Mar-23 05:17 315 8 8.9
2017-Mar-23 05:02 326 6 8.9
2017-Mar-23 04:46 322 7 8.9
2017-Mar-23 04:31 306 6 8.9
2017-Mar-23 04:16 322 8 8.9
2017-Mar-23 04:01 302 13 9.4
2017-Mar-23 03:46 315 10 9.4
2017-Mar-23 03:31 319 12 9.4
2017-Mar-23 03:16 294 12 9.4
2017-Mar-23 03:01 292 11 9.4
2017-Mar-23 02:46 286 11 9.4
2017-Mar-23 02:31 290 11 10.0
2017-Mar-23 02:16 290 12 10.0
2017-Mar-23 02:01 309 12 10.6
2017-Mar-23 01:46 314 13 10.6
2017-Mar-23 01:31 303 13 11.1
2017-Mar-23 01:16 289 13 11.1
2017-Mar-23 01:01 292 13 11.1
2017-Mar-23 00:46 296 13 11.7
2017-Mar-23 00:16 290 14 11.7
2017-Mar-23 00:01 296 12 11.7
2017-Mar-22 23:46 292 13 11.7
2017-Mar-22 23:31 292 12 11.7
2017-Mar-22 23:16 294 13 12.2
2017-Mar-22 23:01 304 13 12.2
2017-Mar-22 22:46 281 11 12.2
2017-Mar-22 22:31 295 11 12.2
2017-Mar-22 22:01 271 9 12.2
2017-Mar-22 21:46 310 10 12.2
2017-Mar-22 21:31 281 10 12.2
2017-Mar-22 21:16 281 11 12.2
2017-Mar-22 21:01 296 11 12.2
2017-Mar-22 20:46 288 9 12.2
2017-Mar-22 20:31 298 8 12.8
2017-Mar-22 20:16 271 9 12.2
2017-Mar-22 20:00 280 9 12.2
2017-Mar-22 19:46 294 9 12.2
2017-Mar-22 19:31 280 10 12.2
2017-Mar-22 19:15 277 9 12.2
2017-Mar-22 19:00 290 9 12.2
2017-Mar-22 18:45 283 6 12.2
2017-Mar-22 18:30 264 7 12.2
2017-Mar-22 18:15 257 7 11.7
2017-Mar-22 18:00 283 8 11.7
2017-Mar-22 17:45 290 7 11.7
2017-Mar-22 17:30 285 7 11.7
2017-Mar-22 17:15 302 6 11.1
2017-Mar-22 17:00 286 6 11.1
2017-Mar-22 16:45 289 6 11.1
2017-Mar-22 16:30 313 8 10.6
2017-Mar-22 16:15 297 6 10.6
2017-Mar-22 16:00 296 4 10.6
2017-Mar-22 15:45 288 5 10.6
2017-Mar-22 15:30 300 6 10.0
2017-Mar-22 15:15 294 4 10.0
2017-Mar-22 15:00 306 4 9.4
2017-Mar-22 14:45 304 5 9.4
2017-Mar-22 14:30 302 2 9.4
2017-Mar-22 14:15 301 3 9.4
2017-Mar-22 14:00 320 2 9.4
2017-Mar-22 13:45 315 4 9.4
2017-Mar-22 13:30 313 4 9.4
2017-Mar-22 13:15 311 6 9.4
2017-Mar-22 13:00 302 8 9.4
2017-Mar-22 12:45 315 6 10.0
2017-Mar-22 12:30 294 6 10.0
2017-Mar-22 12:15 294 7 10.0
2017-Mar-22 12:00 282 8 10.6
2017-Mar-22 11:45 302 6 10.6
2017-Mar-22 11:29 302 10 10.6
2017-Mar-22 11:16 292 10 10.6
2017-Mar-22 10:59 293 9 11.1
2017-Mar-22 10:44 267 5 11.1
2017-Mar-22 10:29 250 5 11.1
2017-Mar-22 10:14 263 5 11.1
2017-Mar-22 09:59 237 4 11.1
2017-Mar-22 09:44 257 4 11.1
2017-Mar-22 09:29 262 3 11.7
2017-Mar-22 09:14 226 4 11.7
2017-Mar-22 08:59 229 3 11.7
2017-Mar-22 08:44 229 3 11.7
2017-Mar-22 08:29 230 3 11.7
2017-Mar-22 08:14 219 4 11.7
2017-Mar-22 07:59 207 5 11.7
2017-Mar-22 07:44 202 4 11.7
2017-Mar-22 07:29 207 3 11.7
2017-Mar-22 07:14 213 3 11.7
2017-Mar-22 06:59 202 4 11.7
2017-Mar-22 06:44 209 5 12.2
2017-Mar-22 06:29 171 7 12.2
2017-Mar-22 06:14 171 7 12.2
2017-Mar-22 05:59 164 6 12.2
2017-Mar-22 05:44 161 7 12.2
2017-Mar-22 05:29 163 10 12.2
2017-Mar-22 05:14 160 9 12.2
2017-Mar-22 04:58 151 6 12.2
2017-Mar-22 04:43 153 6 12.2
2017-Mar-22 04:29 161 8 12.2
2017-Mar-22 04:14 138 8 12.2
2017-Mar-22 03:59 150 8 12.2
2017-Mar-22 03:44 158 8 12.2
2017-Mar-22 03:29 153 6 12.2
2017-Mar-22 03:14 158 6 12.2
2017-Mar-22 02:59 171 6 12.2
2017-Mar-22 02:43 159 5 12.2
2017-Mar-22 02:29 157 6 12.2
2017-Mar-22 02:13 169 7 12.2
2017-Mar-22 01:58 165 7 12.8
2017-Mar-22 01:43 173 9 13.3
2017-Mar-22 01:28 175 10 13.3
2017-Mar-22 01:13 183 9 12.8
2017-Mar-22 00:42 162 9 13.3
2017-Mar-22 00:27 148 11 13.3
2017-Mar-22 00:12 156 11 13.9
2017-Mar-21 23:42 168 11 14.4
2017-Mar-21 23:27 165 12 15.0
2017-Mar-21 23:12 163 10 15.0